Weather History for KBKF - December, 2013

Change the Weather History Date:

Friday, December 13, 2013

  Actual Average Record
Temperature  
Mean Temperature 37 °F -  
Max Temperature 46 °F 42 °F 60 °F (1998)
Min Temperature 28 °F 19 °F 6 °F (2000)
Degree Days  
Heating Degree Days 28    
Moisture  
Dew Point 13 °F    
Average Humidity 42    
Maximum Humidity 64    
Minimum Humidity 22    
Precipitation  
Precipitation 0.00 in - - ()
Sea Level Pressure  
Sea Level Pressure 29.93 in    
Wind  
Wind Speed 7 mph (East)    
Max Wind Speed 16 mph    
Max Gust Speed -    
Visibility 10 miles    
Events      
Averages and records for this station are not official NWS values.
T = Trace of Precipitation, MM = Missing Value Source: NWS Daily Summary

Daily Weather History Graph

Daily Weather History Graph

Search for Another Location

Airport or City:

Trip Planner

Search our weather history database for the weather conditions in past years. The results will help you decide how hot, cold, wet, or windy it might be!

Date:

Astronomy

Dec. 13, 2013 Rise Set
Actual Time 7:11 AM MST 4:35 PM MST
Civil Twilight 6:41 AM MST 5:05 PM MST
Nautical Twilight 6:07 AM MST 5:39 PM MST
Astronomical Twilight 5:34 AM MST 6:12 PM MST
Moon 2:19 PM MST (12/13) 3:37 AM MST (12/13)
Length of Visible Light 10h 24m
Length of Day
9h 23m
Waxing Gibbous, 88% of the Moon is Illuminated
Dec 13
Waxing Gibbous
Dec 17
Full
Dec 25
Last Quarter
Jan 1
New
Jan 7
First Quarter

Hourly Weather History & Observations

Time (MST) Temp. Windchill Dew Point Humidity Pressure Visibility Wind Dir Wind Speed Gust Speed Precip Events Conditions
12:55 AM 32.0 °F 24.2 °F 10.4 °F 41% 29.82 in 10.0 mi South 9.2 mph - N/A   Partly Cloudy
1:55 AM 30.2 °F 21.9 °F 10.4 °F 44% 29.82 in 10.0 mi South 9.2 mph - N/A   Partly Cloudy
2:55 AM 32.0 °F 23.6 °F 8.6 °F 38% 29.81 in 10.0 mi South 10.4 mph - N/A   Partly Cloudy
3:55 AM 32.0 °F 24.8 °F 8.6 °F 38% 29.80 in 10.0 mi South 8.1 mph - N/A   Partly Cloudy
4:55 AM 28.4 °F 20.4 °F 8.6 °F 43% 29.83 in 10.0 mi South 8.1 mph - N/A   Partly Cloudy
5:55 AM 28.4 °F - 6.8 °F 40% 29.85 in 10.0 mi SSE 1.2 mph - N/A   Partly Cloudy
6:55 AM 30.2 °F 24.3 °F 6.8 °F 37% 29.86 in 70.0 mi SSW 5.8 mph - N/A   Partly Cloudy
7:55 AM 28.4 °F 23.3 °F 6.8 °F 40% 29.90 in 70.0 mi East 4.6 mph - N/A   Partly Cloudy
8:55 AM 35.6 °F - 8.6 °F 33% 29.89 in 70.0 mi Calm Calm - N/A   Scattered Clouds
9:55 AM 41.0 °F - 10.4 °F 29% 29.88 in 70.0 mi Calm Calm - N/A   Scattered Clouds
10:55 AM 46.4 °F - 8.6 °F 22% 29.85 in 70.0 mi NNE 1.2 mph - N/A   Scattered Clouds
11:55 AM 46.4 °F 45.2 °F 10.4 °F 23% 29.82 in 70.0 mi SE 3.5 mph - N/A   Scattered Clouds
12:55 PM 46.4 °F 41.5 °F 12.2 °F 25% 29.81 in 70.0 mi East 10.4 mph - N/A   Scattered Clouds
1:55 PM 46.4 °F 40.7 °F 15.8 °F 29% 29.83 in 70.0 mi NE 12.7 mph - N/A   Scattered Clouds
2:55 PM 42.8 °F 35.1 °F 17.6 °F 36% 29.89 in 70.0 mi NE 16.1 mph - N/A   Mostly Cloudy
3:55 PM 39.2 °F 31.6 °F 17.6 °F 42% 29.94 in 70.0 mi NE 12.7 mph - N/A   Mostly Cloudy
4:55 PM 33.8 °F 25.8 °F 19.4 °F 56% 30.01 in 70.0 mi NNE 10.4 mph - N/A   Mostly Cloudy
5:55 PM 33.8 °F 30.8 °F 17.6 °F 52% 30.03 in 25.0 mi NE 3.5 mph - N/A   Mostly Cloudy
6:55 PM 32.0 °F 24.8 °F 17.6 °F 55% 30.07 in 25.0 mi NE 8.1 mph - N/A   Mostly Cloudy
7:55 PM 32.0 °F 28.7 °F 17.6 °F 55% 30.10 in 25.0 mi North 3.5 mph - N/A   Mostly Cloudy
8:55 PM 32.0 °F - 17.6 °F 55% 30.09 in 25.0 mi Calm Calm - N/A   Mostly Cloudy
9:55 PM 32.0 °F 28.7 °F 17.6 °F 55% 30.09 in 25.0 mi NW 3.5 mph - N/A   Mostly Cloudy
10:55 PM 30.2 °F 25.4 °F 17.6 °F 60% 30.11 in 10.0 mi NNE 4.6 mph - N/A   Mostly Cloudy
11:55 PM 28.4 °F - 17.6 °F 64% 30.13 in 10.0 mi NNE 1.2 mph - N/A   Overcast